{"data":{"norad_id":55500,"epoch":"2026-09-20T20:56:41.921088Z","epoch_age_seconds":68185,"freshness":"FRESH","line1":"1 55500U 23015BD  26263.87270742 -.00000088  00000+0  63442-5 0  9992","line2":"2 55500  43.0049 317.6338 0001662 289.6882  70.3790 15.27576625200448","mean_motion":15.27576625,"eccentricity":0.0001662,"inclination_deg":43.0049,"raan_deg":317.6338,"arg_perigee_deg":289.6882,"mean_anomaly_deg":70.379,"bstar":6.3442e-6,"rev_number":20044,"period_min":94.266956984891,"perigee_km":481.91887121363,"apogee_km":484.19953283119,"semimajor_km":6861.1962020224,"source":"CELESTRAK","updated_at":"2026-09-21T09:00:33.261569Z"}}